This demonstration page uses our WeatherBlox Daily Observations layout. Learn more.

39.08367, -84.50855

Hourly Observations for October 6, 2019

Temp ( °F °C ) Dew Point ( °F °C ) Humidity (%) Winds ( mph kmh ) Pressure ( in mb ) Visibility ( mi km ) Precip ( " mm )
12:53 am 00:53 Mostly Clear 58 14.4 55 12.8 90 90 Calm 29.99 1016 10 16.0934 0 0
1:53 am 01:53 Cloudy with Light Rain 60 15.6 57 13.9 90 90 Calm 30.01 1016 8 12.87472 0.001 0.001
2:53 am 02:53 Mostly Cloudy with Light Rain 60 15.6 58 14.4 93 93 Calm 29.99 1016 10 16.0934 0.03 0.762
3:53 am 03:53 Mostly Clear 60 15.6 59 15 96 96 Calm 29.98 1015 8 12.87472 0.001 0.001
4:53 am 04:53 Mostly Clear with Mist and Fog 58 14.4 58 14.4 100 100 Calm 30.01 1016 1.75 2.816345 0 0
5:05 am 05:05 Mostly Cloudy with Mist and Fog 59 15 59 15 100 100 Calm 30.03 1017 3 4.82802 0 0
5:53 am 05:53 Mostly Cloudy 61 16.1 60 15.6 97 97 E 3 6 30.04 1017 9 14.48406 0 0
6:53 am 06:53 Cloudy 60 15.6 60 15.6 100 100 Calm 30.06 1018 7 11.26538 0 0
7:53 am 07:53 Mostly Cloudy 61 16.1 60 15.6 97 97 ENE 3 6 30.08 1019 7 11.26538 0 0
8:53 am 08:53 Cloudy with Light Rain 63 17.2 61 16.1 93 93 Calm 30.09 1019 10 16.0934 0.001 0.001
9:53 am 09:53 Mostly Cloudy 69 20.6 66 18.9 90 90 SSW 7 11 30.08 1019 10 16.0934 0.001 0.001
10:53 am 10:53 Mostly Cloudy 73 22.8 66 18.9 79 79 S 10 17 30.09 1019 10 16.0934 0 0
11:53 am 11:53 Mostly Cloudy 76 24.4 66 18.9 72 72 SW 10 17 30.1 1019 10 16.0934 0 0
12:53 pm 12:53 Mostly Cloudy 76 24.4 67 19.4 74 74 W 9 15 30.11 1020 10 16.0934 0.03 0.762
1:53 pm 13:53 Cloudy with Light Rain 72 22.2 63 17.2 73 73 NNW 13 20 30.1 1019 10 16.0934 0.001 0.001
2:53 pm 14:53 Cloudy 73 22.8 59 15 62 62 WSW 5 7 30.08 1019 10 16.0934 0.001 0.001
3:53 pm 15:53 Cloudy 73 22.8 59 15 62 62 WSW 6 9 30.09 1019 10 16.0934 0 0
4:53 pm 16:53 Cloudy 73 22.8 58 14.4 59 59 WNW 5 7 30.09 1019 10 16.0934 0 0
5:53 pm 17:53 Cloudy 71 21.7 57 13.9 61 61 NNW 7 11 30.09 1019 10 16.0934 0.001 0.001
6:53 pm 18:53 Cloudy 68 20 59 15 73 73 NNW 8 13 30.11 1020 10 16.0934 0.001 0.001
7:53 pm 19:53 Cloudy with Rain 66 18.9 60 15.6 81 81 N 8 13 30.11 1020 7 11.26538 0.02 0.508
8:53 pm 20:53 Cloudy with Rain 64 17.8 61 16.1 90 90 NW 6 9 30.14 1021 6 9.65604 0.11 2.794
9:53 pm 21:53 Cloudy with Rain 61 16.1 58 14.4 90 90 ENE 7 11 30.13 1020 6 9.65604 0.14 3.556
10:53 pm 22:53 Mostly Cloudy with Light Rain 59 15 57 13.9 93 93 N 5 7 30.13 1020 10 16.0934 0.11 2.794
11:06 pm 23:06 Cloudy with Nearby Thunderstorms 60 15.6 58 14.4 93 93 NNE 3 6 30.15 1021 10 16.0934 0.01 0.254
11:10 pm 23:10 Cloudy with Light Rain 60 15.6 58 14.4 93 93 N 3 6 30.15 1021 10 16.0934 0.01 0.254
11:37 pm 23:37 Cloudy 60 15.6 58 14.4 93 93 Calm 30.16 1021 10 16.0934 0.01 0.254
11:53 pm 23:53 Cloudy 61 16.1 59 15 93 93 Calm 30.15 1021 10 16.0934 0.01 0.254

Powered by AerisWeather